Temp
7 8 7 8 8 8 8 8 8 8 8 8 8 8 8 8 8 10 8 19 19 19 20 19 20 20 20 20 20 19 17 16 19 20 23 23 23 25 26 26 26 27 27 27 29
7 7 7 7 8 7 8 8 8 8 8 8 8 8 8 8 8 7 21 20 19 19 19 19 19 19 18 19 19 18 15 18 19 21 22 22 23 23 24 24 25 25 26 28 26
7 7 7 7 7 7 7 7 8 8 8 8 8 8 8 8 8 17 19 19 20 19 19 19 20 20 20 19 19 19 18 20 21 22 21 22 23 24 24 24 24 25 25 27 25
7 7 7 7 7 7 8 8 8 8 8 8 8 7 8 9 19 20 21 21 20 19 18 19 18 18 18 19 19 19 19 21 21 22 22 22 23 23 22 24 24 24 24 26 25
11 9 7 7 7 7 8 8 8 8 8 8 7 7 10 12 13 20 20 21 18 18 19 18 18 18 19 19 19 19 20 21 21 20 20 21 21 22 23 24 24 24 24 24 24
13 11 10 7 7 7 8 7 7 7 8 8 8 7 9 15 19 19 19 20 19 19 18 18 18 18 20 19 19 20 20 20 20 20 20 21 22 21 23 24 24 24 24 23 23
12 10 9 11 11 9 10 12 11 9 8 8 8 8 9 14 19 19 19 20 20 20 18 19 20 20 19 20 20 20 20 19 20 22 21 20 21 21 23 23 22 23 24 23 22
13 11 9 12 14 14 14 14 14 13 10 9 8 8 11 19 19 20 19 19 20 20 20 20 21 20 20 20 17 19 17 18 19 20 22 22 21 22 22 22 23 23 23 23 23
14 13 13 13 13 15 15 15 15 13 10 9 9 9 13 18 18 22 21 20 20 20 20 20 20 18 18 16 15 14 16 17 18 19 21 20 20 21 22 22 21 21 22 23 22
14 14 14 14 13 13 15 14 13 12 9 9 10 11 15 20 21 21 22 20 21 20 20 19 15 16 13 14 15 16 17 17 17 19 20 18 18 19 20 19 19 19 19 20 22
14 14 15 15 14 11 13 12 12 12 11 15 16 15 18 21 21 21 21 19 20 20 19 18 17 15 17 16 17 17 17 16 17 19 19 18 18 18 19 18 19 18 17 18 20
14 14 14 15 13 12 13 13 17 16 13 14 15 16 18 19 19 20 21 20 19 18 18 17 16 16 18 18 17 17 16 16 17 18 17 17 17 17 19 19 19 19 18 17 17
13 13 14 14 13 12 13 16 17 16 14 16 16 17 17 18 17 18 20 19 20 18 17 16 18 19 19 19 18 17 17 17 17 18 18 18 18 19 19 19 20 19 19 18 18
13 13 13 14 13 12 13 17 17 16 14 17 18 19 19 18 19 20 21 21 19 18 17 17 18 19 18 18 18 17 18 18 18 17 16 19 17 18 18 19 20 20 18 17 18
13 14 13 11 12 12 17 17 17 17 16 21 20 21 19 20 22 22 21 21 19 18 18 18 19 19 19 19 19 17 19 18 18 16 16 17 15 19 18 18 18 18 18 19 17
13 14 13 11 10 16 17 17 17 16 16 21 22 20 20 21 21 22 21 21 20 18 18 18 19 20 19 19 19 18 17 16 14 14 14 17 15 18 19 17 18 18 18 18 17
13 14 13 12 14 16 16 15 16 15 20 21 21 22 20 20 21 21 20 18 18 17 16 18 18 18 19 18 17 15 14 12 12 12 16 17 15 18 19 19 19 18 18 16 14
13 14 13 13 15 15 16 15 15 18 19 21 20 20 20 20 20 20 19 17 18 17 14 15 16 18 17 18 17 16 14 12 11 14 15 15 14 18 19 20 18 18 17 14 14
12 14 15 15 16 15 14 15 16 17 19 19 19 19 19 19 19 19 18 17 17 17 16 14 15 16 17 17 16 14 13 13 13 14 13 13 14 17 17 15 15 17 15 15 15
9 10 14 15 15 15 12 14 16 18 19 19 18 20 19 18 18 18 17 18 18 16 16 16 14 15 16 16 13 14 13 13 12 13 12 13 13 15 15 14 15 14 15 14 14
9 10 16 15 15 11 12 15 17 18 18 18 18 18 18 17 17 17 18 18 17 15 15 14 13 14 14 14 13 12 11 11 11 12 12 12 13 14 13 13 13 13 14 13 14
7 12 16 16 14 9 12 14 15 16 17 17 18 18 18 17 17 17 17 17 17 15 15 13 11 11 13 14 13 13 12 10 8 8 9 8 12 16 14 14 13 13 13 13 12
5 5 15 14 13 11 11 14 15 16 15 17 17 17 17 17 16 16 16 16 16 15 13 12 11 10 12 13 13 13 12 11 10 8 10 9 12 14 14 13 12 12 12 12 13
6 8 7 7 8 11 10 12 13 15 14 15 16 16 16 16 16 15 16 16 16 16 16 13 9 11 11 12 10 11 12 11 10 7 11 11 13 14 15 12 12 11 11 12 12
6 7 7 6 8 8 10 11 12 12 14 12 14 15 14 14 15 14 14 15 15 15 11 11 11 10 11 11 11 12 12 12 9 11 10 12 12 13 12 11 11 11 11 12 12
6 6 6 6 8 9 11 11 12 12 10 10 10 13 13 12 14 13 13 13 13 13 12 9 9 11 11 12 11 11 12 12 12 11 11 11 11 13 12 11 11 11 11 11 11
7 7 7 8 9 9 10 11 11 10 10 11 10 10 11 13 13 13 12 12 13 11 10 9 9 8 10 11 10 10 11 12 11 11 12 11 11 10 9 10 10 10 10 10 10
Height
804 800 797 793 790 788 786 784 783 782 780 779 778 777 775 772 767 763 759 748 748 751 754 757 758 759 760 764 763 768 792 802 788 783 768 758 764 754 752 755 753 746 743 736 731
802 798 795 791 788 786 784 782 781 779 778 776 775 774 772 770 766 760 746 745 749 749 754 755 759 759 765 765 766 775 794 788 776 769 768 764 764 761 760 758 755 749 737 734 731
800 797 793 789 786 783 780 779 778 776 775 774 773 771 769 767 766 747 744 743 746 751 753 754 757 759 765 767 769 770 782 772 767 763 762 762 762 757 758 755 753 751 743 737 737
798 794 791 786 783 781 778 777 775 774 772 771 770 769 767 766 759 744 742 742 747 751 754 756 759 764 768 771 764 772 769 764 764 759 760 759 756 757 754 745 741 740 740 737 735
797 792 788 784 781 778 776 774 773 771 770 769 768 767 767 766 755 745 744 744 747 751 753 755 759 762 766 767 766 771 767 761 758 760 759 756 758 755 739 739 734 734 734 733 734
797 792 786 782 779 777 774 772 770 769 769 768 767 767 767 764 745 745 745 746 748 751 754 756 757 758 762 764 767 763 762 761 757 757 755 757 751 748 734 732 731 729 727 726 728
797 791 786 782 778 775 772 770 769 768 767 767 767 767 767 755 744 744 745 746 748 749 751 752 754 757 759 763 759 760 767 763 758 752 753 752 750 745 734 730 731 726 723 720 719
795 790 785 781 778 774 771 769 767 766 766 767 766 768 761 743 742 742 743 745 746 748 749 750 752 754 756 755 764 766 771 777 762 755 747 749 753 739 731 732 729 724 723 721 718
795 790 786 781 777 773 770 767 764 764 765 766 768 768 756 742 741 738 740 742 744 746 746 749 751 758 761 773 784 784 786 781 775 758 752 752 755 739 732 733 734 728 722 718 719
795 789 784 779 774 770 768 765 763 764 766 767 768 770 747 741 737 737 737 740 743 745 747 749 759 768 778 781 796 784 782 778 776 759 752 758 753 746 737 736 733 731 727 723 716
794 787 781 776 770 767 766 766 767 767 765 754 751 751 743 738 736 736 736 740 743 747 759 757 766 774 770 771 769 772 777 780 769 754 758 758 751 745 736 733 731 727 727 722 713
791 785 778 771 765 762 762 762 758 761 760 743 741 744 740 741 744 735 736 743 749 759 757 766 772 761 758 761 767 771 776 774 763 751 760 757 748 742 736 731 724 721 721 720 713
788 781 775 767 760 758 759 757 756 756 760 740 736 737 736 739 744 738 735 740 747 756 759 768 756 749 755 758 764 765 770 766 764 751 746 746 738 736 729 724 717 714 712 709 706
786 779 772 764 762 759 759 756 755 753 770 747 736 730 732 733 739 727 729 737 747 754 758 759 748 749 755 759 759 767 753 755 755 759 771 744 742 735 729 725 715 707 707 706 702
782 775 769 764 761 758 756 756 753 753 777 732 731 723 727 734 728 728 726 732 746 749 753 755 747 749 753 752 750 760 748 753 753 761 759 754 767 725 723 724 717 709 705 699 699
778 770 762 758 757 753 753 753 755 770 772 733 726 732 735 731 730 726 728 729 733 747 748 749 741 743 745 742 746 746 752 754 763 767 766 750 760 716 716 719 712 705 701 698 696
772 764 756 754 753 752 752 753 772 775 738 740 736 729 734 736 733 733 736 744 751 760 761 749 747 743 742 750 750 756 767 782 779 779 751 739 750 721 700 705 705 703 698 700 697
766 755 750 750 751 752 752 763 776 756 749 735 736 734 739 735 737 737 741 749 743 748 764 764 765 746 746 747 752 756 765 785 786 766 749 744 743 709 699 695 698 695 696 699 693
761 751 750 750 750 753 759 770 767 757 748 746 738 741 742 738 739 742 746 749 744 744 759 766 763 746 741 744 752 763 771 767 769 759 762 751 731 709 702 707 703 699 706 696 690
761 755 754 751 752 753 767 768 761 750 747 745 750 737 744 744 743 745 747 738 741 743 744 754 767 752 748 748 758 758 763 769 772 764 763 743 741 727 716 714 710 710 706 704 699
764 759 756 754 754 761 773 764 757 749 751 749 746 745 742 745 746 749 744 741 739 747 748 756 765 761 757 758 760 767 771 772 772 769 758 750 740 726 727 722 717 711 708 706 696
771 766 756 754 763 777 774 767 759 757 752 749 743 741 742 744 747 747 747 743 738 743 751 758 770 771 759 751 752 755 761 771 790 790 779 787 739 712 719 717 711 708 703 699 698
785 780 758 756 769 777 774 766 761 759 764 754 750 745 744 746 752 747 745 742 742 746 754 758 770 780 762 759 752 752 757 759 768 778 767 782 739 717 715 714 713 713 706 701 693
787 786 776 772 779 780 781 773 768 761 763 760 753 746 748 748 747 752 749 743 742 742 742 749 770 762 771 758 766 764 755 756 767 790 755 747 730 716 714 719 715 713 710 701 697
792 796 796 797 786 789 784 775 772 769 763 765 760 753 758 757 752 752 750 748 744 742 752 757 761 765 760 756 755 752 751 750 763 752 755 726 730 718 720 719 716 713 707 703 698
798 800 796 796 789 787 778 774 770 767 776 773 772 760 760 762 755 753 750 752 752 749 751 763 769 760 759 748 751 749 742 742 739 742 737 733 731 716 716 717 714 713 709 706 699
797 797 797 792 787 784 777 771 770 777 773 770 773 770 760 752 748 744 745 745 744 751 758 763 767 776 761 751 755 753 738 734 738 736 729 733 724 726 724 720 717 713 709 702 694
Wind_Speed
21 20 20 19 19 19 18 17 17 16 15 14 13 13 13 14 17 15 8 9 2 19 9 2 2 4 5 2 3 4 3 4 7 7 10 3 4 1 2 5 5 5 4 7 2
21 21 20 19 19 18 18 17 16 15 15 13 12 12 12 12 15 12 10 7 9 7 12 7 3 5 2 2 2 4 4 7 6 5 6 4 4 5 4 10 4 7 12 6 10
21 21 21 20 19 18 18 17 15 14 13 12 12 11 11 11 4 6 7 5 16 9 8 6 3 3 3 2 3 3 4 4 3 5 6 3 4 4 3 18 6 8 10 3 8
23 22 22 21 19 18 16 15 15 13 11 11 10 10 10 2 2 3 9 10 16 9 6 5 3 3 4 4 3 1 5 5 7 7 7 10 6 9 10 17 6 9 7 7 7
28 26 22 21 19 18 16 13 13 11 10 9 8 8 3 2 8 5 4 15 14 11 7 3 4 4 2 2 2 4 5 6 7 7 7 10 10 12 21 8 12 9 11 10 10
31 30 25 21 19 17 15 12 11 10 9 9 7 4 2 3 1 5 4 13 10 10 8 6 5 5 2 2 4 3 3 6 5 6 4 6 8 7 2 8 13 11 14 10 12
33 34 26 22 19 17 14 12 10 9 9 7 5 1 1 11 3 6 8 6 8 10 4 6 3 3 4 3 2 2 3 7 4 4 5 4 10 9 7 8 11 13 13 8 11
34 36 30 25 20 16 13 12 10 7 6 4 3 1 7 5 6 8 8 7 7 8 9 8 4 2 2 1 6 4 4 3 5 4 6 6 14 8 6 7 10 11 8 6 10
34 35 34 31 26 18 15 15 12 5 1 4 3 1 8 4 7 8 12 6 7 11 11 6 2 2 4 4 5 5 2 2 7 5 5 5 6 6 7 5 9 10 10 11 8
36 35 36 36 28 22 17 10 3 4 5 3 3 3 7 2 3 4 15 12 1 2 2 4 4 3 3 4 3 4 3 3 4 5 4 10 15 9 11 6 10 9 10 12 15
39 41 38 38 34 23 16 3 2 1 4 7 6 5 5 7 5 4 5 7 1 2 3 2 1 5 8 7 6 3 3 5 9 14 5 9 14 12 12 9 11 9 9 11 15
41 42 43 38 32 19 6 3 3 2 7 13 17 7 15 7 5 3 12 4 4 6 4 4 7 8 5 4 4 5 5 8 7 11 6 8 13 10 7 8 10 8 8 10 8
41 44 42 41 23 7 6 5 4 3 2 6 5 4 5 10 7 7 8 4 4 5 6 6 6 5 5 3 4 4 4 5 7 7 4 5 13 6 6 6 7 7 7 7 9
40 44 44 44 4 3 6 3 8 5 4 5 3 4 5 6 4 11 12 6 1 9 7 5 4 3 3 5 5 4 5 6 6 4 5 2 18 9 4 10 9 11 8 9 10
42 44 45 27 11 3 2 9 3 3 3 2 2 8 3 6 2 2 5 4 7 5 5 7 2 2 3 5 3 7 3 4 5 7 4 2 5 2 2 7 9 9 10 9 7
44 45 39 10 6 8 5 9 2 3 4 2 4 4 4 2 2 2 3 4 2 5 2 7 1 3 4 0 3 1 2 3 2 2 9 8 8 20 17 7 5 6 6 9 9
45 46 23 6 2 2 9 2 2 2 5 4 3 2 2 2 3 2 3 3 6 3 5 2 3 1 1 0 1 4 5 4 4 1 9 4 5 16 9 5 8 8 7 7 8
46 36 14 5 2 2 0 4 2 3 5 4 4 6 3 1 2 3 3 2 2 3 2 4 5 4 4 4 2 1 5 4 6 6 14 6 7 15 2 3 6 7 4 6 5
46 20 7 12 6 3 4 2 3 1 5 7 9 3 2 0 2 0 1 3 3 3 4 4 4 4 3 2 4 0 3 2 3 7 6 5 9 13 5 9 13 3 5 4 4
27 11 9 8 6 2 4 2 2 3 8 5 3 2 4 1 1 2 1 1 1 4 3 2 2 2 3 2 4 3 4 0 1 4 6 4 4 7 9 8 10 10 8 8 10
7 4 5 7 4 5 2 1 3 10 12 4 4 4 1 3 3 3 3 1 2 2 4 3 3 3 1 4 6 1 1 2 1 3 4 4 3 5 5 5 7 8 6 8 9
7 2 12 5 3 1 1 4 7 9 16 6 3 2 1 3 3 4 4 2 2 4 4 2 4 4 8 4 6 4 6 5 4 6 4 3 8 7 2 8 7 12 11 11 9
3 3 8 6 2 2 5 4 2 3 5 6 4 4 3 1 2 1 1 1 3 4 6 5 1 2 7 4 3 2 4 4 2 2 6 3 8 2 5 9 7 9 14 13 14
3 4 4 5 2 4 4 4 5 6 7 7 6 3 3 2 1 2 2 2 2 2 3 7 4 6 6 6 4 4 4 5 6 2 7 13 20 21 13 6 8 8 10 13 13
3 1 2 4 3 6 3 3 10 6 3 5 8 8 7 4 4 4 3 3 3 1 3 4 3 4 5 8 6 10 11 9 8 13 9 20 16 17 5 5 6 8 10 14 16
2 3 4 3 4 4 2 2 10 3 2 3 6 13 9 4 8 8 5 3 6 1 2 2 2 1 4 10 8 12 11 9 10 4 7 9 11 8 4 4 6 8 12 16 17
2 1 3 3 4 4 2 3 5 10 5 9 8 10 10 12 9 12 7 4 3 6 5 3 4 2 4 3 7 6 4 4 5 6 9 6 4 6 6 9 9 15 15 18 18
Wind_Direction
335 330 326 322 318 316 313 312 310 309 307 307 308 308 309 309 308 303 251 239 270 221 188 264 352 131 126 136 140 128 96 213 209 190 239 330 346 343 296 233 327 275 296 270 247
338 333 330 324 319 316 313 311 309 308 308 307 308 311 311 313 306 250 277 255 186 128 194 170 130 128 98 161 158 141 161 220 209 217 274 287 285 315 333 291 263 309 305 300 146
342 337 331 327 322 319 316 313 310 308 307 307 310 312 314 319 283 245 331 246 188 160 112 110 115 112 136 130 195 175 219 202 248 243 251 248 276 238 262 279 203 269 287 323 296
345 341 333 328 325 321 319 314 311 308 305 305 311 316 325 302 97 16 15 149 168 176 142 119 92 105 126 186 216 203 234 216 241 234 254 265 229 253 220 254 243 248 238 279 230
358 351 338 330 327 323 318 314 311 308 305 307 313 321 335 290 252 10 42 142 143 149 161 129 132 145 172 205 172 194 247 261 259 271 247 265 256 256 259 264 275 256 265 234 238
2 357 349 339 329 325 321 315 312 308 307 308 305 317 320 290 301 321 179 155 157 153 165 178 192 193 196 217 163 209 251 280 292 267 240 236 248 193 330 220 259 258 260 234 220
2 360 349 346 341 333 332 330 321 312 303 300 286 179 317 242 210 356 183 192 184 178 164 205 161 133 149 271 214 274 293 329 256 256 234 185 284 235 245 252 256 264 257 248 229
7 4 353 349 345 343 340 332 319 302 309 292 226 221 250 270 270 265 206 219 204 219 236 257 249 233 184 346 22 7 47 32 292 334 272 161 258 304 277 267 255 266 268 257 262
9 7 3 354 346 334 330 323 303 272 286 151 148 188 272 274 274 244 218 206 185 228 244 233 190 132 37 77 10 5 255 333 317 297 290 186 281 290 315 265 276 280 285 294 269
2 1 358 357 344 332 325 343 42 112 108 130 272 328 271 188 282 237 213 214 201 354 35 87 61 103 48 73 246 268 299 261 254 275 213 274 277 268 279 245 251 255 266 268 267
357 354 350 348 345 327 322 273 9 350 202 212 193 257 291 303 295 187 171 129 98 106 196 3 116 203 220 200 213 230 232 245 261 272 234 259 269 269 266 293 285 259 242 254 255
354 350 345 342 339 317 276 218 189 237 294 232 251 241 260 316 326 284 158 135 146 190 127 15 256 216 199 197 209 231 260 274 277 263 178 269 264 239 245 249 251 255 280 257 269
352 349 344 339 330 318 234 231 174 320 286 295 193 196 209 154 211 257 158 155 169 176 181 178 227 99 166 247 251 248 202 253 240 304 296 263 274 285 238 246 268 258 240 251 245
346 347 344 335 336 2 265 143 309 180 25 274 254 252 139 150 235 210 179 143 197 216 163 231 262 216 159 246 172 269 227 254 278 349 281 106 288 267 223 240 250 256 252 266 274
340 341 340 336 289 227 203 321 318 132 341 183 180 169 147 162 301 159 172 88 198 188 124 241 157 146 211 234 130 237 322 300 279 271 282 180 276 268 188 246 248 262 265 283 277
336 337 335 329 245 259 272 317 162 47 255 18 119 170 144 220 327 48 136 66 172 167 246 240 268 191 219 245 195 301 349 299 59 138 258 252 197 275 264 234 244 253 255 283 298
334 333 327 279 233 174 336 55 36 203 311 13 29 11 239 226 141 139 175 185 194 147 245 318 218 221 142 295 239 68 46 328 320 313 266 187 214 249 275 196 234 254 277 313 304
334 334 330 279 182 310 213 64 206 295 10 352 339 300 172 121 55 4 5 317 3 111 117 175 309 183 192 163 243 353 152 182 261 265 290 333 243 254 30 235 264 245 161 239 14
335 347 27 359 198 215 74 124 231 295 342 321 311 221 156 115 140 49 190 202 204 179 158 150 269 305 21 93 110 222 183 203 263 249 269 238 285 301 45 28 1 71 314 42 73
331 335 9 17 118 58 77 214 280 259 339 310 277 264 211 221 85 58 263 233 281 57 68 192 291 254 288 75 27 164 156 180 260 277 255 232 269 251 354 0 3 4 326 302 298
342 35 3 356 339 49 125 229 299 344 356 314 298 284 313 169 192 219 247 334 142 108 78 132 153 265 304 194 199 156 129 95 203 239 290 310 284 332 294 320 318 303 311 295 288
351 49 359 17 45 39 71 314 334 332 340 292 313 306 262 164 250 222 212 238 43 147 163 150 159 227 231 268 248 168 189 163 132 278 252 211 269 230 311 313 343 327 343 355 341
359 284 345 359 62 22 323 318 289 25 351 309 302 4 6 231 296 315 258 39 131 144 173 185 209 345 332 353 350 199 191 173 132 118 227 234 264 201 290 1 4 340 335 341 345
26 353 334 26 26 45 356 302 340 352 279 323 284 40 1 301 151 265 280 245 321 225 171 145 158 178 209 234 186 263 241 217 175 199 269 237 277 281 292 325 328 324 324 333 331
30 1 170 323 335 333 295 309 298 292 285 358 313 25 8 310 314 250 245 310 319 57 84 123 206 196 252 258 248 258 260 250 208 238 240 278 264 280 264 282 294 303 328 329 326
71 18 356 281 292 304 230 275 286 303 8 271 256 327 327 260 248 273 216 209 236 6 130 15 255 120 273 266 261 266 259 251 256 238 292 295 289 269 295 314 318 318 321 312 310
350 148 103 308 301 300 245 285 330 350 260 243 257 316 276 268 278 258 226 201 192 177 186 146 157 114 263 314 308 276 217 222 230 227 260 271 259 335 315 311 303 304 297 293 289